Location: Capannuccia
(43.7000°N, 11.3000°E)
Time: 08:33:26
(UTC+00:00)

STARLINK-1312 - Pass Details

Date: 05 October 2020
Orbit: 549 x 550 km, 53.0° (Epoch: 23 October)

Event Time Altitude Azimuth Distance (km) Brightness Sun altitude
Exits shadow 03:52:20 24° 222° (SW) 1,155 4.8 -16.1°
Maximum altitude 03:54:43 72° 142° (SE) 579 3.7 -15.7°
Drops below altitude 10° 03:58:50 10° 58° (ENE) 1,824 7.3 -15.0°
Sets 04:01:05 0° 57° (ENE) 2,721 8.4 -14.6°
